Regional Weather Roundup
Issued by NWS

Home | Current Version | Previous Version | Text Only | Print | Product List | Glossary On
Versions: 1 2 3 4 5 6 7 8 9 10 11 12 13 14 15 16 17 18 19 20 21 22 23 24 25 26 27 28 29 30 31 32 33 34 35 36 37 38 39 40 41 42 43 44 45 46 47 48 49 50
307
ASUS45 KCYS 221310
RWRWY

WYOMING REGIONAL WEATHER ROUNDUP
NATIONAL WEATHER SERVICE CHEYENNE WY
600 AM MST THU FEB 22 2018

NOTE:  "FAIR" INDICATES FEW OR NO CLOUDS BELOW 12,000 FEET
WITH NO SIGNIFICANT WEATHER AND/OR OBSTRUCTIONS TO VISIBILITY.

WYZ001-221400-
YELLOWSTONE NATIONAL PARK

CITY           SKY/WX    TMP DP  RH WIND       PRES   REMARKS
LK YELLOWSTONE   N/A    -17 -22  78 CALM      29.89S
W YELLOWSTONE  NOT AVBL

$$
WYZ002>013-054>058-071-098>099-221400-
NORTHERN WYOMING

CITY           SKY/WX    TMP DP  RH WIND       PRES   REMARKS
JACKSON        FLURRIES  -2  -7  79 N6        29.97S WCI -14
CODY           FAIR       6  -3  66 S10       29.98F WCI  -9
GREYBULL       FAIR     -21 -25  81 CALM      30.09S
WORLAND        FAIR     -12 -17  78 CALM      30.06R
SHERIDAN       FAIR     -13 -16  86 CALM      30.05S
BUFFALO        FAIR      14  -5  42 W9        30.00S WCI   2
GILLETTE       FAIR      -5 -10  79 CALM      30.02F
HULETT         FAIR      10   5  79 MISG      30.05F
NEWCASTLE      FAIR       1  -2  85 CALM      30.09S

$$
WYZ014>020-022>026-101>103-221400-
CENTRAL WYOMING

CITY           SKY/WX    TMP DP  RH WIND       PRES   REMARKS
BIG PINEY      CLOUDY   -10 -14  82 CALM      29.95F
PINEDALE       CLOUDY    -6  -9  84 W6        29.95S WCI -18
DUBOIS           N/A    N/A N/A N/A MISG        N/A
LANDER         FAIR      -4  -9  79 CALM      29.99R
RIVERTON       FAIR      -9 -15  75 NE3       30.00F
CASPER         MOCLDY     3  -4  72 NW7       30.00S WCI  -9
DOUGLAS        CLOUDY     1  -2  87 NW6       30.03S WCI -10

$$
WYZ021-027>030-104>119-221400-
SOUTHERN WYOMING

CITY           SKY/WX    TMP DP  RH WIND       PRES   REMARKS
EVANSTON       CLOUDY     1  -4  79 E12       29.89S WCI -16
ROCK SPRINGS   CLOUDY     1  -4  79 CALM      29.94S
DIXON          CLOUDY     2  -2  81 CALM      29.97S
RAWLINS        CLOUDY    -4  -8  83 NW5       29.94F WCI -15
SARATOGA       FAIR      -6  -9  84 MISG      29.93S
LARAMIE        MOCLDY     0  -3  87 S3        29.90S
CHEYENNE       FAIR       9   5  84 W6        29.93F WCI  -1
TORRINGTON     CLOUDY     9   6  88 E5        30.07R WCI   1
PINE BLUFFS    CLOUDY     3   0  85 MISG      30.02F

$$




USA.gov is the U.S. government's official web portal to all federal, state and local government web resources and services.